FLOCK 2K-07 (42862 NORAD) Tracking and Keplerian Element Data

This shows tracking and keplerian element data for the satellite.

Feedback or suggestion? Click here.




ElementValue
Catalog42862
NameFLOCK 2K-07
Epoch Orbit3280
Epoch Day45.45387842
Epoch Year2018
RAAN308.2444
Inclination96.9931
Eccentricity0.0010273
Argument of Perigee187.5597
Mean Anonmoly172.5495
Mean Motion15.35631752
Decay Rate7.302E-05
L11 42862U 17042AP 18045.45387842 .00007302 00000-0 21262-3 0 9993
L22 42862 96.9931 308.2444 0010273 187.5597 172.5495 15.35631752 32805

Live tracking and technical data element details for FLOCK 2K-07 (NORAD 42862). FLOCK 2K-07 can be tracked NOW for your location showing map with azimuth and elevation plus other details from your city location.

Track the satellite on the map from your city or location and see movement details for azimuth, elevation, latitude, longitude, range, height, and movement on the map or in text.







IsCatalogInMostPopularTable: catalog: 42862, numindb: 160
Update: records affected: 1



GetName: 42862 FLOCK 2K-07

Hit Count: updated at: Wed, 14 Nov 2018 15:26:15 GMT